Vorticity
3 6 8 9 10 10 9 9 7 5 6 7 8 9 7 6 7 7 7 7 7 7 5 5 6 5 6 6 6 7 7 7 6 6 6 5 4 4 4 5 5 5 6 6 5 5 5 6 5 5 5 5 5 5 5 5 4 4 4 4 4 5 5 4 5 6 6 6 6 6 6 4 3 5 5 5 6 6 7 7 5 4 4 3 4
4 5 5 7 11 10 9 10 10 8 7 9 10 8 7 6 6 7 6 7 7 5 4 4 4 3 3 3 3 4 5 4 3 3 3 2 2 2 3 3 4 4 4 5 5 6 6 6 6 7 8 8 7 7 6 6 6 5 4 5 6 6 7 6 6 6 6 7 6 6 7 6 5 6 6 5 5 5 6 7 7 5 4 4 4
3 5 5 6 8 8 6 8 12 14 11 12 11 8 7 7 5 6 6 6 5 3 3 3 1 1 1 1 2 2 2 2 2 2 2 2 3 3 4 4 4 4 4 4 4 5 6 6 5 6 8 9 10 10 9 8 7 6 5 6 6 6 8 8 7 7 7 7 7 6 7 6 6 7 6 6 6 5 5 6 7 7 5 5 5
3 5 8 7 7 7 6 6 10 14 13 12 12 8 6 6 5 5 5 3 2 2 2 2 1 1 1 2 2 2 2 2 3 2 2 2 3 4 4 4 4 5 4 3 3 4 4 4 4 5 6 8 10 11 11 9 7 7 7 6 6 7 8 9 9 10 9 7 7 7 7 7 7 7 6 7 6 5 5 5 5 6 7 6 6
5 5 8 10 9 6 5 6 7 11 11 10 12 9 6 5 5 5 5 3 2 3 1 1 2 3 3 2 2 2 2 3 2 2 2 3 3 3 3 3 4 5 3 2 2 3 4 4 4 5 7 8 10 11 11 10 8 7 6 6 6 6 6 7 8 9 8 9 10 8 8 8 7 7 7 7 7 7 7 6 6 7 7 7 9
8 5 5 9 11 9 7 6 7 8 8 8 9 9 7 5 6 6 5 3 3 2 1 1 2 3 3 2 2 2 2 3 2 1 2 2 1 2 3 3 3 3 3 2 2 3 3 3 4 6 9 11 10 11 10 8 7 6 6 5 6 6 6 7 7 7 8 8 10 10 10 9 7 7 7 6 7 8 8 7 7 9 9 9 10
12 10 7 9 11 10 9 7 6 6 6 6 7 8 7 5 5 5 5 3 2 1 -0 0 1 2 3 1 1 1 2 2 1 1 1 1 2 2 3 4 5 5 4 4 3 3 4 4 4 7 10 11 10 11 9 7 6 5 5 5 6 6 7 7 7 6 7 8 8 9 10 9 8 7 7 7 7 8 8 7 7 10 11 11 10
11 13 12 12 13 10 9 7 6 5 4 4 4 6 7 5 3 2 2 2 1 -1 -1 0 1 1 1 0 2 1 2 3 1 1 1 1 3 3 6 7 7 7 6 5 4 5 6 4 5 8 9 10 11 11 9 6 5 3 4 5 6 6 6 7 7 7 8 7 7 8 9 9 8 8 7 7 7 7 7 7 7 10 12 12 11
9 13 14 14 14 11 9 7 5 6 4 2 3 5 6 5 4 2 1 1 -0 -0 -0 2 3 4 4 2 2 2 1 1 -0 1 1 2 5 6 9 9 8 9 7 6 6 6 6 5 6 8 8 9 11 11 9 6 5 4 4 6 7 7 7 7 7 8 9 8 8 8 8 8 8 8 8 8 7 7 8 9 8 7 12 15 12
9 10 13 14 14 11 9 7 7 8 5 4 4 5 5 5 5 4 3 3 2 2 2 3 4 4 4 3 2 1 0 1 3 5 6 9 11 10 10 10 9 9 7 7 8 6 5 5 7 10 9 10 12 11 9 7 5 3 4 6 7 7 6 6 6 7 8 9 9 9 9 9 10 10 10 10 9 8 8 11 11 6 5 11 12
8 9 12 15 13 11 13 12 12 10 8 8 8 5 3 3 5 4 4 3 1 2 1 3 4 3 5 6 7 6 6 8 10 12 14 15 13 11 10 11 11 10 9 8 8 6 5 6 9 10 9 9 11 11 9 7 4 3 4 5 5 6 5 4 5 6 7 8 7 8 9 9 10 10 10 10 10 10 8 9 13 12 6 4 7
5 8 12 19 19 14 14 15 12 9 9 9 7 6 5 5 5 4 4 5 5 5 6 7 8 8 10 12 13 14 13 14 14 15 15 12 10 9 9 10 10 10 9 8 7 6 6 7 8 9 8 9 10 11 10 7 5 4 4 4 3 4 4 3 5 5 6 6 7 8 8 8 9 8 8 6 6 6 6 4 7 13 14 9 6
2 5 9 19 26 20 11 10 11 11 10 8 6 8 9 9 9 9 9 10 10 10 9 8 9 11 13 14 14 14 14 15 16 15 12 9 8 8 9 9 9 8 8 7 7 6 6 7 8 8 8 8 9 10 9 6 5 5 6 6 4 2 2 3 5 5 5 5 6 7 8 8 9 9 8 6 3 1 3 4 5 9 15 15 12
3 4 3 8 21 24 14 9 13 15 11 10 11 10 11 11 10 9 8 9 9 8 7 8 11 11 12 14 13 11 11 12 13 12 9 7 6 7 8 9 8 8 8 8 8 6 6 7 8 8 7 7 8 8 7 4 4 5 6 7 5 3 2 3 4 4 4 5 6 7 8 8 9 11 10 7 6 4 4 7 9 11 14 15 15
7 6 3 1 10 19 18 11 11 14 11 9 9 7 7 8 6 5 7 7 5 5 8 9 8 9 10 12 12 10 8 8 8 6 5 5 6 8 8 8 8 8 8 8 8 6 6 6 6 6 6 6 6 6 5 4 4 4 6 7 5 3 3 3 3 3 3 3 6 7 7 9 10 9 9 7 6 7 8 11 15 16 15 14 14
7 8 4 2 8 13 16 13 7 5 5 4 4 3 4 5 6 8 8 6 4 6 9 5 5 9 10 9 8 8 8 8 7 7 6 5 6 7 8 8 8 8 7 8 7 7 7 7 7 6 5 4 5 6 4 3 4 4 5 6 6 5 4 4 2 1 3 4 5 7 9 9 9 6 4 4 3 5 10 14 17 15 12 12 13
4 6 4 5 11 12 14 15 11 7 4 3 3 3 5 6 8 9 7 6 7 9 8 5 7 10 8 8 10 8 7 8 9 11 10 6 6 9 9 8 8 8 7 7 8 8 8 7 7 7 6 4 3 5 5 3 4 4 5 5 5 5 4 3 2 3 4 4 4 7 10 10 8 5 1 -2 -2 3 8 11 13 11 9 10 13
5 5 4 6 10 13 14 13 12 13 12 11 10 8 8 8 8 7 6 7 8 9 9 8 8 6 3 6 11 10 7 7 10 12 9 4 5 10 11 8 8 8 8 9 9 9 9 9 9 9 7 5 3 4 5 4 5 5 5 5 4 5 4 3 5 6 4 4 5 7 10 11 9 5 2 -3 -4 1 6 11 12 11 10 11 14
6 2 5 9 9 14 21 21 19 17 17 18 18 16 13 9 6 5 5 6 7 9 9 6 5 3 3 6 10 10 8 7 8 9 7 2 1 7 13 14 12 9 9 9 9 10 10 10 9 9 9 6 3 4 5 5 7 7 5 4 5 5 6 7 8 8 6 5 6 8 10 13 10 6 5 2 -0 2 7 13 16 15 13 14 14
3 1 8 12 11 13 17 19 20 19 19 17 16 17 14 7 4 4 5 7 9 11 9 6 8 7 6 9 9 7 8 8 8 9 9 6 2 4 10 14 13 10 7 6 10 13 13 12 9 8 9 9 6 4 5 6 8 9 6 5 8 8 8 9 9 7 7 6 6 8 11 13 11 8 7 5 5 7 10 12 15 15 14 14 12
2 4 12 14 10 9 8 13 17 15 16 18 18 19 16 11 10 10 11 12 11 11 8 6 10 8 5 7 7 9 14 13 10 11 11 9 9 8 10 13 11 9 8 7 9 13 13 12 10 9 9 9 7 3 3 8 10 7 7 7 8 9 9 10 9 8 8 8 8 10 11 9 7 6 5 7 9 10 12 13 13 12 12 11 10
-0 6 17 16 9 4 4 11 13 7 8 11 13 16 15 14 14 11 10 9 7 7 7 6 8 7 6 7 6 8 14 15 16 19 16 11 11 9 9 14 12 9 11 10 8 8 9 10 10 11 12 9 5 2 1 7 9 5 5 6 6 9 10 9 8 8 8 8 8 8 6 5 5 6 7 9 12 13 14 14 12 12 11 10 10
-1 13 21 15 9 9 9 10 6 -2 -1 3 8 12 11 10 9 7 7 7 6 7 7 6 6 6 7 7 6 6 12 17 17 14 13 11 9 6 8 13 9 5 7 8 7 4 2 6 9 9 12 13 9 6 4 6 8 5 3 4 6 8 10 8 6 7 7 6 5 4 5 6 7 8 10 12 15 15 14 12 11 11 10 10 11
3 15 18 14 12 13 15 14 8 1 3 10 15 13 9 10 14 15 15 12 10 9 7 7 9 8 9 7 4 2 1 6 10 10 12 10 1 2 11 14 9 7 7 5 3 -0 -4 0 6 6 8 12 11 8 7 7 6 5 4 4 5 8 10 8 6 6 6 3 2 4 8 9 9 9 12 14 15 13 11 11 10 9 10 10 11
11 11 10 10 7 4 6 7 5 8 12 12 8 2 1 6 10 14 16 13 12 11 8 9 10 10 11 8 9 9 -1 -0 6 3 3 4 -1 2 12 18 16 12 9 8 5 1 -1 -2 2 6 7 9 12 10 9 10 5 3 5 3 3 8 10 8 6 6 6 4 2 4 8 10 10 11 13 13 12 11 10 10 9 8 10 10 10
16 11 8 6 -2 -3 4 7 9 14 12 1 -5 -3 0 0 -1 2 7 8 11 11 8 7 6 10 13 7 6 10 5 6 9 2 4 14 12 5 3 10 19 14 4 8 11 5 3 4 5 8 6 5 10 11 9 10 5 4 7 3 -0 5 7 6 5 6 8 7 4 5 8 11 11 11 12 12 11 9 8 8 9 8 9 10 10
15 13 10 6 -0 0 7 9 9 8 6 -0 -3 -1 -2 -4 -3 0 2 5 10 12 12 9 4 8 14 8 3 6 6 8 12 8 6 6 1 4 7 5 14 23 14 4 3 2 6 11 10 7 5 4 8 10 8 8 6 5 7 5 1 4 7 7 6 7 10 9 5 4 9 12 11 10 12 13 11 9 8 7 8 9 9 9 10
15 13 4 2 3 5 8 11 8 3 0 0 -1 -1 -2 -1 2 2 0 1 5 10 13 11 8 9 12 8 8 14 13 10 14 14 8 9 10 15 28 25 10 11 14 5 3 9 13 15 12 5 2 4 5 6 6 6 6 7 9 8 5 6 8 9 7 6 8 7 4 5 9 11 10 9 10 11 11 10 10 11 11 11 11 10 10
10 7 2 1 -0 -1 3 7 9 4 -3 -4 -1 1 1 3 4 1 -2 -0 3 6 7 10 9 5 5 6 8 13 10 6 22 27 10 12 9 -19 -8 30 22 2 9 12 4 7 13 18 17 6 -0 3 4 4 5 3 3 7 10 8 6 8 10 9 6 6 8 7 5 7 10 10 8 8 9 9 10 11 13 16 16 12 11 11 10
4 1 2 2 -2 -1 2 3 7 7 2 -1 1 3 3 4 4 0 -4 -1 4 4 10 22 19 6 5 11 11 12 6 1 23 44 33 25 9 -33 -30 18 25 5 11 15 2 -4 3 15 17 4 -2 2 2 1 4 2 2 9 11 6 5 9 8 5 6 9 11 10 9 9 10 8 7 8 10 9 9 11 15 18 16 12 11 11 10
4 -1 2 2 -0 1 1 -0 2 5 6 4 3 3 2 -0 1 -0 -5 -3 3 4 11 23 20 6 3 8 10 14 17 16 30 63 85 76 35 -3 1 24 27 19 15 15 14 5 -1 8 12 1 -3 2 2 3 4 1 2 9 8 2 3 5 1 1 7 12 13 10 8 10 10 7 6 8 11 11 10 11 16 18 16 13 11 10 10
2 -0 2 2 0 0 -0 1 0 1 5 6 4 1 -2 -4 1 2 -2 -3 -2 -0 5 9 7 2 -2 1 10 15 21 27 20 17 37 47 21 0 10 23 30 34 22 11 19 18 5 8 9 -2 -3 3 2 4 5 1 4 9 6 1 1 -0 -4 1 11 14 11 7 7 12 13 9 8 9 10 11 11 14 19 19 17 15 12 10 8
3 1 2 1 1 -0 -1 -0 -1 -1 4 4 2 1 -1 -0 3 2 -0 -1 -4 -4 -0 1 3 5 4 4 8 10 15 22 13 -11 -16 3 12 7 10 17 24 38 38 21 17 20 17 13 7 -2 1 7 5 6 8 4 4 9 5 0 -0 -4 -6 1 10 11 7 6 11 16 15 12 11 11 11 12 13 17 19 17 15 14 11 9 8
6 4 4 3 1 -1 3 9 9 9 9 3 1 2 -1 -0 4 3 -1 -4 -4 0 1 -1 -2 1 8 10 4 5 14 13 10 5 -5 -3 8 5 3 10 15 32 53 41 19 22 27 18 9 3 5 8 6 7 9 6 7 7 1 -1 -1 -6 -5 3 7 6 5 9 16 18 16 15 14 13 14 14 13 15 15 13 13 12 9 8 9
4 5 4 1 2 5 12 15 10 7 4 -5 -5 2 1 -0 5 6 -1 -7 -6 0 2 4 6 4 4 5 -0 3 14 15 16 17 2 -6 6 5 -1 3 6 24 58 59 34 28 26 11 3 8 11 8 7 10 9 8 9 1 -5 -1 -2 -9 -2 8 5 3 7 14 18 18 16 14 13 14 15 13 11 11 12 13 13 10 9 10 11
0 5 9 9 11 12 8 5 5 4 -2 -10 -8 4 7 3 4 5 0 -5 -5 -2 2 7 13 10 2 -0 2 6 11 16 20 15 -3 -12 -9 -10 -6 8 10 15 44 60 41 18 6 -1 2 9 8 3 6 12 10 9 9 -1 -3 3 -4 -9 5 10 2 3 10 15 16 15 14 13 12 14 15 11 10 12 12 13 12 10 10 12 14
3 1 4 1 -2 -2 -3 0 3 -4 -11 -9 -3 7 12 6 5 6 -1 -6 -6 -5 0 9 9 5 1 -1 1 6 12 18 16 10 8 4 -8 -14 1 19 18 13 29 48 34 1 -13 -3 6 7 7 8 13 14 10 9 6 -2 3 5 -7 -4 12 9 0 6 12 12 13 13 14 14 14 15 14 10 11 13 12 13 12 10 11 14 17
4 -2 2 1 -2 1 2 1 -2 -10 -7 3 5 7 10 3 -1 2 -4 -6 -4 -9 -5 11 10 -0 -1 0 0 4 12 17 8 -1 8 18 9 0 4 9 12 15 20 26 19 3 4 17 17 9 10 15 15 13 13 12 6 6 14 7 -6 2 13 6 2 9 10 9 11 12 14 15 15 16 13 10 12 13 11 12 12 10 13 17 19
5 -1 5 11 10 3 -6 -7 -2 -1 1 5 2 3 6 -1 -6 -1 -1 -3 -4 -9 -4 12 11 -1 -1 4 4 6 10 12 8 5 12 19 12 2 2 8 14 18 18 14 9 6 17 30 26 18 18 18 12 9 13 12 8 12 15 5 -1 9 11 4 6 10 7 8 11 12 14 15 15 16 12 10 12 13 11 12 11 11 15 18 18
8 2 2 8 6 -5 -12 -5 3 4 1 2 5 6 5 -0 -3 2 6 3 -4 -8 -1 11 9 0 4 10 7 3 6 9 11 12 12 8 2 2 13 24 27 25 22 14 7 7 17 26 26 21 21 20 11 6 10 11 3 -0 2 4 7 11 9 7 9 9 7 9 10 11 13 14 16 15 11 9 12 12 11 11 11 13 16 16 17
9 7 2 3 2 -4 -3 4 8 10 10 10 12 8 2 -1 1 3 3 -1 -6 -5 1 9 8 2 6 14 9 0 4 8 5 4 5 7 13 18 19 17 20 27 26 16 17 26 28 24 21 18 19 19 17 16 17 16 8 4 9 12 11 10 10 10 10 8 8 10 10 12 13 15 16 13 10 10 11 11 11 11 12 15 15 14 15
5 10 8 7 5 2 5 11 10 11 10 5 4 4 -0 -2 0 1 -2 -5 -4 1 4 8 10 7 9 14 7 -1 4 9 5 4 10 18 25 26 20 14 18 28 29 25 27 29 23 16 11 9 10 13 16 20 22 21 18 16 15 12 9 11 13 10 8 8 9 11 12 13 13 14 16 13 9 10 11 10 10 11 13 15 14 12 13
3 7 9 9 8 6 11 14 8 5 7 5 2 4 5 3 -2 -4 -1 -1 -0 4 9 12 11 9 10 11 5 1 6 9 7 7 13 19 17 15 19 22 18 12 12 22 32 27 16 5 -2 1 6 -4 -17 -14 -2 7 10 9 8 10 13 14 10 7 8 9 9 11 12 12 14 16 16 12 9 10 10 9 11 13 14 15 13 11 12
11 11 12 14 14 15 21 21 12 8 14 20 19 15 11 4 -5 -6 2 6 6 9 16 17 13 10 10 10 6 5 7 7 7 8 12 15 12 10 16 17 9 -2 -4 14 37 33 4 -24 -28 -6 13 7 -6 -4 5 11 12 10 12 15 14 10 6 5 8 9 10 13 13 13 16 18 15 11 9 9 9 9 12 14 13 13 12 11 11
7 4 3 4 5 9 14 15 13 14 20 25 25 17 9 1 -2 2 7 8 7 11 16 17 14 12 12 10 7 7 7 5 7 11 15 16 15 18 19 10 -1 -5 -10 -2 21 33 17 -4 -9 -1 5 10 20 26 22 19 17 15 15 14 9 6 4 4 7 10 11 13 14 16 18 17 12 10 9 8 8 10 14 15 13 12 13 13 11
2 -2 -4 -7 -8 -1 7 10 11 17 24 28 26 18 9 4 2 3 5 7 11 16 18 17 14 11 9 8 5 5 7 7 10 15 18 17 15 16 15 5 -1 3 1 -9 -8 4 14 14 10 6 6 13 23 21 14 14 14 12 13 11 6 3 2 4 9 11 12 15 17 17 16 13 10 10 9 8 8 11 15 15 12 11 14 15 12
-6 -6 -5 -8 -10 2 20 25 22 21 21 22 21 15 9 8 10 11 16 21 25 24 19 15 13 10 9 7 5 6 7 7 9 10 9 9 8 9 13 15 16 16 8 -9 -16 -5 7 6 1 4 12 15 13 9 9 12 12 11 11 8 3 2 5 9 13 14 14 18 18 16 13 10 9 10 9 8 9 12 16 15 11 10 14 17 15
-3 -3 -3 -3 -2 7 20 28 34 39 37 30 24 21 22 29 33 32 30 29 27 23 17 13 11 9 7 6 7 10 9 6 6 8 8 9 11 13 17 19 10 -3 -11 -11 -2 8 7 3 7 14 14 8 5 6 9 11 12 13 10 5 4 7 10 13 16 16 16 18 16 13 11 8 9 11 10 9 10 14 17 14 9 8 13 20 20
-5 -2 2 11 15 9 8 18 30 37 39 35 32 28 27 28 26 23 20 16 13 11 10 9 8 7 6 7 8 8 4 1 2 5 8 10 10 8 3 -4 -13 -16 -7 5 11 6 3 15 25 17 3 2 7 10 12 16 17 14 9 5 7 12 14 16 16 16 17 17 14 11 9 8 11 11 10 10 12 14 16 13 8 8 12 20 24
-10 -1 7 16 18 11 12 25 31 27 24 22 19 13 9 8 9 9 9 8 8 10 10 10 10 9 7 7 6 4 4 4 4 7 9 7 4 0 -3 -5 -4 1 8 11 8 8 20 30 19 -4 -8 8 18 18 20 22 18 11 8 9 13 16 17 16 16 16 16 14 11 9 9 9 11 10 10 11 13 14 14 10 7 8 10 16 22
-2 4 10 16 23 25 25 24 21 17 16 11 6 4 4 5 6 7 9 10 10 11 10 9 9 8 8 8 7 5 4 3 3 6 7 4 4 7 7 7 8 11 13 12 12 18 20 7 -12 -13 3 16 16 15 18 18 12 7 7 12 16 17 15 14 15 15 14 11 10 11 10 10 11 10 10 12 13 13 12 9 7 9 10 11 16
Height
5921 5921 5921 5921 5921 5921 5921 5921 5921 5921 5921 5922 5922 5922 5922 5922 5922 5922 5922 5922 5922 5922 5922 5922 5922 5922 5922 5922 5921 5921 5921 5921 5921 5921 5921 5921 5920 5920 5919 5919 5919 5918 5918 5917 5916 5915 5915 5914 5913 5913 5912 5911 5910 5909 5908 5907 5906 5905 5904 5904 5903 5902 5901 5900 5899 5897 5896 5896 5896 5895 5894 5893 5892 5892 5891 5889 5888 5887 5886 5885 5884 5883 5882 5881 5880
5920 5920 5921 5921 5921 5921 5921 5921 5921 5921 5921 5921 5921 5922 5922 5922 5922 5922 5922 5922 5922 5922 5922 5922 5922 5922 5922 5921 5921 5921 5921 5922 5921 5921 5921 5921 5920 5920 5919 5918 5918 5918 5917 5916 5916 5915 5914 5913 5913 5912 5911 5910 5909 5908 5907 5906 5905 5904 5903 5902 5902 5901 5900 5899 5897 5896 5894 5893 5892 5892 5892 5891 5890 5889 5889 5888 5886 5885 5884 5884 5883 5881 5881 5880 5879
5919 5919 5920 5920 5921 5921 5921 5920 5920 5921 5921 5921 5921 5921 5921 5922 5922 5922 5922 5922 5922 5922 5922 5922 5922 5922 5921 5921 5921 5921 5921 5921 5921 5921 5920 5920 5919 5919 5918 5918 5917 5917 5916 5915 5915 5914 5913 5912 5911 5910 5909 5908 5907 5906 5905 5904 5903 5903 5902 5901 5900 5900 5899 5898 5896 5894 5893 5891 5890 5889 5889 5889 5888 5888 5887 5886 5885 5884 5883 5882 5881 5880 5879 5878 5877
5918 5918 5919 5919 5920 5920 5920 5920 5920 5920 5921 5921 5920 5921 5921 5921 5922 5922 5922 5922 5922 5922 5922 5922 5921 5921 5921 5921 5920 5920 5920 5920 5920 5920 5919 5919 5918 5918 5918 5917 5916 5915 5915 5914 5913 5912 5911 5910 5910 5909 5908 5907 5905 5904 5903 5902 5902 5901 5900 5899 5899 5898 5897 5895 5894 5893 5891 5890 5888 5887 5886 5886 5885 5885 5885 5884 5883 5882 5881 5880 5879 5878 5877 5876 5875
5916 5917 5917 5918 5918 5918 5919 5919 5919 5919 5920 5920 5920 5920 5920 5921 5921 5921 5921 5921 5921 5921 5921 5921 5921 5921 5920 5920 5920 5919 5919 5919 5918 5918 5918 5918 5917 5917 5916 5915 5915 5914 5913 5913 5912 5911 5910 5909 5908 5908 5906 5905 5904 5903 5901 5900 5899 5899 5898 5897 5896 5895 5894 5893 5892 5891 5889 5888 5887 5886 5885 5883 5882 5881 5881 5882 5881 5880 5879 5878 5878 5877 5875 5874 5873
5915 5915 5916 5916 5916 5916 5917 5917 5917 5918 5919 5919 5919 5920 5920 5920 5920 5920 5920 5920 5921 5921 5921 5920 5920 5920 5920 5919 5919 5918 5918 5918 5917 5917 5916 5916 5916 5915 5914 5914 5913 5913 5912 5911 5910 5910 5909 5908 5907 5906 5904 5903 5901 5900 5899 5897 5896 5895 5894 5893 5892 5891 5890 5890 5889 5888 5887 5887 5886 5884 5883 5882 5880 5879 5878 5878 5878 5878 5877 5876 5875 5875 5873 5872 5871
5913 5913 5914 5914 5914 5914 5915 5915 5915 5916 5917 5917 5918 5918 5918 5919 5919 5919 5919 5919 5920 5920 5920 5919 5919 5919 5919 5918 5918 5917 5917 5917 5916 5916 5915 5914 5914 5913 5913 5912 5912 5911 5910 5909 5908 5907 5907 5906 5904 5903 5901 5900 5899 5897 5896 5895 5894 5893 5892 5891 5890 5889 5888 5888 5887 5886 5885 5884 5884 5883 5882 5880 5879 5877 5876 5875 5874 5875 5874 5873 5872 5872 5871 5869 5868
5911 5911 5911 5912 5912 5912 5913 5913 5914 5914 5915 5915 5916 5916 5916 5917 5917 5917 5917 5918 5918 5918 5918 5918 5918 5918 5917 5917 5916 5916 5915 5915 5914 5913 5913 5912 5911 5911 5910 5910 5909 5908 5907 5907 5906 5905 5904 5903 5902 5901 5900 5898 5897 5896 5895 5894 5892 5891 5891 5890 5889 5888 5887 5886 5885 5884 5883 5882 5881 5880 5879 5878 5877 5876 5875 5873 5871 5871 5871 5871 5870 5869 5868 5867 5865
5910 5909 5909 5909 5910 5910 5911 5911 5912 5913 5913 5913 5914 5914 5914 5914 5915 5915 5915 5916 5916 5916 5916 5916 5916 5916 5915 5915 5914 5913 5912 5912 5911 5911 5910 5909 5908 5907 5907 5906 5906 5905 5905 5904 5903 5902 5901 5900 5899 5899 5898 5897 5896 5895 5894 5892 5891 5890 5889 5888 5888 5887 5885 5884 5883 5882 5881 5880 5879 5878 5877 5876 5875 5874 5873 5872 5870 5868 5867 5866 5866 5866 5865 5864 5863
5908 5908 5907 5907 5907 5908 5909 5910 5910 5911 5911 5911 5911 5912 5912 5912 5912 5913 5913 5913 5914 5914 5914 5914 5913 5913 5913 5912 5912 5911 5909 5908 5908 5907 5906 5906 5905 5904 5904 5903 5903 5903 5902 5901 5901 5900 5899 5898 5897 5896 5895 5894 5893 5892 5892 5890 5889 5888 5887 5886 5885 5884 5883 5882 5881 5880 5879 5878 5877 5876 5875 5874 5872 5871 5871 5870 5869 5867 5865 5863 5862 5861 5861 5860 5859
5907 5906 5906 5905 5905 5906 5907 5908 5908 5908 5909 5909 5909 5910 5910 5910 5910 5910 5910 5911 5912 5912 5912 5911 5911 5910 5910 5909 5909 5908 5907 5905 5904 5903 5903 5903 5902 5901 5901 5901 5900 5900 5899 5899 5898 5897 5896 5896 5895 5894 5893 5892 5891 5890 5889 5888 5887 5886 5885 5884 5883 5882 5881 5880 5878 5877 5876 5875 5874 5873 5871 5870 5869 5868 5868 5867 5866 5865 5864 5861 5859 5857 5856 5855 5855
5905 5905 5905 5904 5903 5904 5904 5905 5905 5906 5907 5907 5907 5907 5908 5908 5908 5908 5908 5909 5910 5910 5910 5909 5908 5907 5906 5906 5905 5904 5903 5902 5901 5900 5900 5899 5899 5899 5898 5898 5897 5897 5896 5896 5895 5894 5894 5893 5892 5891 5890 5889 5888 5888 5887 5886 5885 5883 5883 5882 5881 5880 5879 5878 5876 5875 5873 5872 5871 5870 5868 5867 5865 5864 5864 5863 5862 5861 5860 5859 5857 5854 5852 5850 5850
5903 5903 5902 5902 5902 5902 5902 5902 5903 5904 5904 5905 5905 5905 5906 5906 5906 5906 5907 5907 5908 5908 5908 5907 5906 5905 5904 5903 5902 5900 5900 5899 5898 5898 5897 5896 5896 5895 5895 5895 5894 5893 5893 5892 5892 5891 5890 5889 5888 5887 5887 5886 5885 5885 5884 5883 5882 5881 5880 5880 5879 5878 5877 5876 5874 5872 5871 5869 5868 5867 5865 5863 5862 5861 5860 5859 5858 5857 5855 5854 5853 5851 5849 5847 5845
5902 5901 5900 5900 5900 5900 5900 5900 5900 5901 5902 5902 5903 5903 5904 5904 5904 5904 5904 5905 5905 5906 5905 5905 5904 5903 5902 5901 5900 5899 5897 5896 5895 5895 5894 5894 5893 5892 5892 5891 5890 5890 5889 5889 5888 5887 5886 5885 5884 5884 5883 5883 5882 5881 5881 5880 5879 5878 5878 5877 5876 5875 5874 5873 5872 5870 5869 5867 5865 5863 5862 5860 5858 5857 5856 5855 5854 5852 5851 5850 5848 5847 5846 5844 5841
5901 5900 5900 5899 5898 5898 5898 5898 5899 5899 5899 5900 5901 5901 5902 5902 5902 5902 5902 5903 5903 5903 5903 5902 5902 5901 5900 5899 5898 5897 5896 5894 5893 5892 5892 5891 5890 5890 5888 5888 5887 5886 5885 5885 5884 5883 5882 5881 5880 5880 5879 5879 5879 5878 5878 5877 5876 5875 5875 5874 5873 5872 5871 5870 5869 5867 5865 5863 5861 5860 5858 5856 5855 5853 5851 5850 5849 5847 5846 5845 5843 5842 5841 5839 5837
5899 5899 5899 5898 5896 5896 5896 5896 5897 5897 5897 5898 5899 5899 5899 5899 5899 5900 5900 5900 5901 5900 5900 5900 5899 5899 5898 5897 5896 5894 5893 5892 5891 5890 5890 5889 5888 5887 5886 5885 5884 5883 5882 5881 5880 5879 5879 5878 5877 5876 5876 5876 5875 5875 5874 5873 5873 5872 5872 5871 5870 5869 5868 5866 5865 5863 5861 5860 5858 5856 5855 5853 5851 5849 5847 5845 5844 5842 5841 5839 5838 5837 5836 5834 5833
5898 5897 5897 5896 5894 5894 5894 5894 5894 5894 5895 5896 5896 5896 5896 5896 5897 5897 5898 5898 5898 5897 5897 5897 5897 5896 5895 5894 5893 5892 5891 5889 5888 5887 5887 5886 5885 5885 5883 5882 5881 5879 5878 5877 5877 5876 5876 5875 5874 5874 5873 5872 5872 5872 5871 5870 5869 5869 5868 5867 5866 5865 5863 5862 5861 5859 5857 5856 5854 5852 5851 5849 5848 5846 5843 5841 5839 5837 5836 5834 5832 5831 5829 5829 5828
5896 5895 5895 5893 5892 5892 5892 5892 5892 5892 5892 5893 5893 5893 5894 5894 5894 5894 5895 5895 5895 5895 5895 5894 5893 5893 5892 5891 5890 5889 5888 5887 5885 5884 5883 5882 5882 5881 5880 5879 5877 5875 5874 5873 5873 5873 5872 5872 5871 5871 5870 5870 5869 5869 5868 5867 5866 5865 5864 5863 5862 5860 5859 5858 5856 5855 5853 5852 5850 5849 5847 5845 5844 5842 5839 5837 5835 5833 5831 5829 5827 5825 5823 5822 5822
5894 5893 5892 5891 5890 5890 5890 5890 5889 5890 5890 5890 5890 5890 5891 5892 5892 5892 5892 5893 5893 5892 5892 5891 5891 5890 5889 5888 5886 5885 5884 5883 5882 5881 5880 5879 5877 5877 5876 5875 5874 5872 5870 5870 5869 5869 5868 5868 5867 5867 5867 5866 5866 5865 5864 5863 5862 5861 5860 5859 5857 5856 5855 5853 5852 5850 5849 5847 5846 5844 5843 5841 5839 5837 5835 5833 5830 5828 5826 5824 5822 5819 5818 5817 5816
5892 5891 5890 5889 5889 5888 5888 5887 5887 5887 5887 5888 5888 5888 5889 5890 5890 5890 5890 5890 5891 5890 5890 5889 5888 5887 5886 5885 5883 5882 5881 5879 5878 5877 5876 5875 5874 5873 5872 5871 5870 5868 5867 5867 5866 5866 5865 5864 5864 5863 5863 5863 5862 5862 5861 5860 5859 5857 5856 5855 5854 5853 5851 5849 5847 5846 5844 5843 5841 5840 5838 5836 5835 5833 5830 5828 5826 5823 5821 5819 5816 5814 5813 5812 5810
5890 5890 5889 5888 5887 5887 5887 5886 5885 5885 5885 5885 5886 5886 5887 5888 5888 5888 5888 5888 5888 5888 5888 5887 5886 5885 5883 5882 5880 5880 5879 5877 5876 5874 5873 5871 5870 5870 5869 5868 5867 5865 5865 5864 5864 5863 5862 5861 5860 5860 5859 5859 5859 5858 5857 5856 5855 5854 5853 5852 5851 5849 5847 5845 5843 5841 5840 5839 5837 5835 5833 5832 5830 5828 5825 5823 5821 5818 5816 5813 5811 5808 5806 5805 5803
5888 5888 5887 5887 5886 5886 5886 5885 5884 5884 5884 5884 5885 5885 5886 5886 5887 5887 5887 5887 5886 5886 5885 5884 5883 5882 5880 5879 5877 5877 5876 5875 5873 5872 5870 5869 5868 5867 5866 5865 5864 5863 5862 5862 5861 5860 5859 5858 5857 5856 5856 5855 5855 5854 5853 5852 5851 5850 5849 5848 5847 5845 5843 5841 5839 5837 5836 5834 5833 5831 5829 5827 5825 5823 5820 5818 5815 5813 5810 5807 5805 5803 5800 5798 5796
5886 5886 5885 5885 5885 5884 5884 5884 5883 5883 5883 5884 5884 5884 5885 5885 5885 5885 5885 5885 5884 5883 5882 5881 5881 5879 5877 5876 5874 5874 5873 5871 5870 5868 5867 5866 5864 5863 5862 5862 5861 5860 5860 5860 5859 5857 5856 5855 5854 5853 5852 5851 5850 5849 5849 5848 5847 5846 5845 5844 5843 5841 5839 5837 5835 5834 5832 5830 5828 5826 5824 5822 5820 5818 5815 5812 5810 5807 5805 5802 5799 5796 5794 5791 5789
5884 5884 5883 5883 5883 5882 5882 5881 5881 5881 5881 5882 5882 5883 5883 5884 5884 5884 5883 5883 5882 5881 5880 5879 5877 5876 5874 5872 5870 5869 5868 5868 5866 5864 5863 5862 5861 5858 5857 5857 5857 5856 5856 5856 5855 5854 5853 5851 5850 5849 5848 5847 5846 5845 5844 5843 5843 5841 5840 5840 5838 5837 5835 5833 5831 5829 5827 5825 5823 5822 5820 5817 5815 5813 5810 5807 5804 5802 5799 5797 5794 5791 5788 5786 5783
5881 5882 5881 5881 5881 5880 5880 5880 5879 5880 5880 5880 5881 5882 5882 5882 5882 5882 5881 5880 5879 5878 5877 5875 5874 5872 5871 5868 5866 5864 5863 5863 5862 5860 5858 5857 5857 5855 5853 5852 5852 5851 5851 5851 5850 5850 5849 5847 5845 5844 5843 5842 5841 5840 5839 5838 5838 5837 5836 5835 5834 5832 5830 5829 5827 5825 5822 5821 5819 5817 5815 5813 5810 5808 5805 5802 5799 5796 5794 5792 5789 5786 5783 5781 5778
5879 5879 5879 5879 5879 5879 5878 5878 5878 5878 5878 5879 5880 5880 5880 5880 5880 5879 5878 5877 5876 5875 5874 5872 5871 5869 5867 5864 5862 5860 5858 5857 5856 5854 5852 5851 5851 5850 5849 5848 5848 5847 5847 5846 5845 5844 5844 5843 5841 5840 5839 5838 5836 5835 5834 5833 5832 5832 5831 5830 5829 5827 5826 5824 5822 5820 5818 5816 5814 5812 5810 5807 5805 5802 5799 5796 5793 5791 5788 5786 5783 5780 5777 5775 5772
5876 5877 5877 5877 5877 5877 5877 5877 5877 5877 5877 5878 5878 5878 5878 5878 5877 5876 5875 5874 5873 5872 5870 5869 5868 5866 5863 5860 5858 5857 5854 5852 5849 5849 5849 5848 5846 5846 5846 5845 5844 5843 5842 5840 5839 5839 5839 5839 5838 5836 5835 5834 5832 5831 5829 5828 5828 5827 5826 5825 5824 5823 5821 5819 5817 5815 5813 5811 5809 5807 5804 5802 5799 5797 5794 5791 5788 5785 5782 5779 5777 5774 5772 5769 5766
5873 5874 5874 5874 5875 5875 5875 5875 5875 5875 5875 5875 5876 5875 5875 5875 5874 5873 5872 5871 5870 5868 5867 5866 5864 5862 5859 5857 5856 5854 5850 5847 5845 5843 5843 5844 5842 5842 5843 5842 5840 5838 5836 5834 5833 5833 5833 5834 5834 5832 5830 5829 5827 5826 5824 5823 5823 5822 5821 5820 5819 5817 5816 5814 5812 5810 5808 5806 5804 5802 5799 5796 5793 5791 5788 5785 5782 5779 5776 5773 5770 5767 5765 5763 5760
5870 5871 5871 5871 5872 5872 5872 5872 5872 5872 5873 5872 5872 5872 5872 5872 5871 5870 5869 5868 5867 5865 5864 5862 5860 5858 5856 5855 5853 5850 5845 5842 5841 5838 5838 5838 5837 5836 5837 5836 5834 5832 5830 5828 5827 5827 5828 5829 5828 5827 5825 5824 5822 5820 5819 5818 5817 5816 5815 5815 5814 5812 5811 5809 5807 5805 5803 5802 5800 5797 5793 5790 5787 5785 5782 5779 5775 5773 5770 5767 5764 5761 5759 5757 5754
5867 5868 5868 5868 5869 5869 5869 5869 5869 5869 5869 5869 5868 5868 5868 5868 5867 5866 5866 5864 5863 5861 5859 5858 5857 5855 5854 5853 5850 5846 5841 5837 5834 5831 5831 5831 5831 5831 5831 5830 5828 5826 5824 5822 5821 5821 5822 5823 5823 5822 5820 5819 5817 5815 5814 5813 5813 5812 5811 5810 5809 5807 5806 5804 5802 5800 5799 5797 5794 5791 5787 5784 5782 5779 5777 5773 5769 5767 5764 5762 5758 5755 5753 5750 5748
5864 5865 5865 5865 5865 5865 5865 5865 5865 5865 5864 5864 5864 5864 5863 5863 5862 5861 5861 5860 5858 5857 5855 5855 5854 5853 5853 5851 5848 5844 5839 5834 5829 5827 5824 5824 5828 5831 5829 5825 5822 5820 5817 5816 5815 5815 5817 5818 5818 5816 5815 5813 5812 5810 5809 5808 5808 5807 5806 5805 5804 5803 5801 5799 5797 5795 5793 5791 5789 5786 5782 5779 5776 5774 5772 5768 5764 5762 5759 5756 5752 5749 5746 5744 5742
5861 5862 5861 5861 5861 5861 5861 5861 5861 5860 5860 5860 5859 5859 5858 5858 5857 5856 5856 5856 5855 5853 5852 5851 5850 5850 5849 5848 5845 5841 5837 5832 5828 5825 5823 5822 5826 5827 5823 5819 5817 5814 5811 5809 5809 5810 5811 5812 5812 5811 5809 5808 5806 5804 5804 5804 5804 5803 5801 5801 5800 5798 5796 5794 5793 5791 5789 5786 5784 5781 5778 5775 5771 5768 5766 5763 5759 5757 5754 5750 5746 5743 5740 5737 5735
5858 5858 5858 5858 5858 5858 5857 5857 5856 5855 5855 5855 5854 5854 5853 5853 5853 5852 5852 5852 5851 5850 5848 5847 5846 5845 5844 5842 5840 5838 5835 5832 5828 5824 5821 5821 5821 5819 5815 5812 5810 5808 5806 5804 5803 5804 5806 5806 5806 5805 5803 5802 5801 5799 5798 5799 5799 5798 5797 5796 5795 5794 5792 5790 5788 5787 5784 5782 5779 5776 5772 5769 5766 5762 5759 5757 5754 5752 5749 5744 5740 5737 5734 5731 5728
5854 5854 5854 5854 5854 5854 5853 5852 5851 5850 5850 5850 5849 5849 5849 5849 5849 5848 5848 5848 5848 5846 5844 5842 5841 5839 5838 5836 5835 5832 5830 5828 5826 5821 5817 5816 5814 5811 5808 5806 5804 5802 5799 5798 5797 5798 5799 5800 5799 5798 5797 5796 5795 5794 5793 5794 5795 5794 5792 5791 5790 5789 5788 5786 5784 5782 5779 5776 5773 5770 5767 5763 5759 5756 5754 5751 5749 5747 5743 5739 5735 5731 5728 5725 5722
5850 5850 5850 5849 5850 5849 5848 5847 5846 5846 5845 5845 5845 5845 5845 5845 5845 5845 5844 5844 5844 5842 5840 5838 5835 5834 5833 5831 5829 5826 5823 5820 5819 5816 5813 5810 5807 5805 5803 5801 5800 5797 5793 5791 5791 5792 5794 5794 5793 5792 5791 5791 5790 5789 5789 5789 5790 5789 5787 5786 5786 5785 5783 5782 5779 5777 5774 5771 5767 5764 5761 5757 5753 5751 5748 5746 5744 5741 5738 5734 5729 5725 5722 5719 5716
5845 5845 5844 5844 5844 5842 5841 5841 5841 5841 5840 5840 5840 5841 5841 5841 5841 5841 5840 5840 5839 5837 5835 5833 5831 5829 5827 5825 5822 5820 5817 5814 5813 5811 5808 5806 5804 5802 5800 5797 5796 5794 5791 5790 5789 5789 5789 5788 5787 5786 5785 5785 5784 5784 5784 5785 5784 5783 5782 5781 5781 5780 5778 5776 5774 5771 5768 5765 5761 5758 5754 5751 5747 5745 5742 5740 5738 5735 5731 5727 5723 5719 5716 5713 5710
5840 5840 5838 5838 5838 5837 5836 5836 5836 5836 5835 5835 5836 5836 5836 5837 5837 5837 5836 5835 5834 5832 5831 5829 5827 5824 5821 5818 5815 5813 5811 5810 5808 5807 5805 5804 5802 5800 5797 5794 5792 5791 5790 5788 5788 5787 5785 5783 5782 5780 5780 5780 5779 5779 5780 5780 5779 5777 5777 5777 5776 5775 5772 5770 5767 5765 5762 5759 5755 5752 5748 5745 5742 5739 5737 5734 5732 5729 5725 5721 5718 5714 5711 5708 5705
5834 5833 5832 5832 5832 5832 5831 5831 5831 5830 5831 5831 5831 5831 5832 5832 5832 5832 5831 5830 5829 5828 5826 5824 5822 5819 5816 5813 5810 5808 5806 5805 5804 5803 5801 5800 5799 5797 5795 5792 5789 5786 5785 5784 5784 5784 5782 5779 5777 5775 5774 5774 5774 5774 5775 5775 5774 5772 5771 5771 5771 5769 5766 5763 5761 5758 5756 5752 5749 5746 5743 5739 5736 5733 5731 5729 5726 5723 5719 5715 5712 5709 5706 5704 5701
5827 5826 5826 5827 5827 5826 5825 5825 5825 5825 5826 5826 5827 5827 5827 5827 5827 5826 5826 5825 5824 5822 5821 5819 5816 5814 5811 5808 5805 5804 5803 5802 5800 5798 5796 5794 5793 5793 5791 5788 5784 5782 5780 5779 5779 5778 5776 5774 5772 5770 5768 5768 5769 5769 5769 5769 5768 5767 5766 5766 5765 5762 5760 5757 5755 5752 5750 5746 5743 5740 5737 5734 5730 5728 5725 5723 5720 5717 5713 5710 5707 5705 5702 5699 5697
5822 5821 5821 5821 5820 5820 5819 5819 5819 5820 5821 5821 5822 5822 5821 5821 5821 5821 5820 5819 5818 5817 5816 5814 5811 5808 5806 5803 5801 5800 5800 5798 5794 5792 5791 5789 5786 5785 5784 5782 5779 5777 5775 5773 5772 5771 5769 5767 5767 5767 5765 5765 5765 5764 5763 5763 5763 5762 5761 5760 5759 5756 5753 5751 5749 5747 5744 5740 5737 5734 5731 5728 5725 5722 5720 5718 5715 5712 5709 5705 5702 5700 5698 5695 5693
5817 5817 5816 5815 5815 5815 5814 5814 5815 5816 5816 5817 5817 5816 5816 5815 5815 5815 5814 5813 5813 5812 5811 5809 5807 5804 5801 5798 5797 5796 5795 5792 5788 5785 5784 5782 5779 5777 5777 5775 5774 5773 5771 5768 5766 5764 5763 5763 5763 5764 5763 5762 5761 5759 5759 5758 5758 5757 5756 5755 5752 5750 5748 5746 5743 5741 5738 5734 5731 5728 5725 5722 5719 5717 5715 5712 5710 5707 5703 5701 5698 5696 5694 5691 5689
5813 5813 5812 5812 5812 5811 5811 5811 5810 5810 5812 5812 5811 5810 5809 5809 5809 5808 5808 5807 5806 5806 5805 5804 5802 5799 5796 5794 5792 5790 5788 5786 5783 5780 5777 5776 5774 5773 5772 5771 5770 5769 5767 5764 5763 5761 5760 5760 5760 5760 5760 5758 5757 5755 5754 5753 5752 5751 5750 5747 5745 5743 5741 5740 5738 5735 5731 5728 5725 5722 5719 5716 5714 5712 5710 5707 5704 5701 5698 5696 5693 5691 5689 5687 5685
5810 5810 5809 5809 5808 5807 5807 5807 5805 5806 5808 5808 5806 5804 5804 5803 5803 5803 5802 5801 5800 5799 5799 5798 5796 5793 5791 5789 5786 5782 5781 5780 5779 5776 5774 5773 5771 5770 5769 5768 5767 5766 5764 5763 5761 5759 5758 5757 5758 5758 5757 5755 5753 5751 5749 5747 5746 5744 5742 5740 5738 5737 5735 5734 5731 5728 5725 5722 5719 5716 5713 5711 5709 5707 5705 5702 5699 5697 5694 5691 5689 5687 5685 5683 5681
5807 5807 5807 5806 5806 5805 5805 5804 5803 5803 5804 5802 5800 5798 5798 5798 5798 5797 5796 5795 5794 5793 5792 5791 5790 5787 5785 5783 5780 5777 5776 5775 5773 5772 5770 5769 5768 5767 5765 5764 5763 5762 5761 5760 5758 5758 5757 5755 5754 5754 5753 5751 5748 5745 5743 5741 5739 5737 5735 5733 5732 5731 5729 5727 5725 5722 5719 5716 5713 5711 5708 5706 5704 5702 5699 5697 5694 5692 5690 5687 5685 5683 5681 5679 5678
5803 5803 5803 5802 5802 5802 5802 5801 5799 5798 5796 5795 5794 5794 5793 5793 5792 5791 5789 5788 5788 5788 5787 5785 5783 5782 5780 5778 5776 5773 5772 5770 5768 5767 5766 5764 5763 5763 5761 5760 5759 5758 5757 5757 5755 5755 5755 5753 5751 5749 5747 5745 5742 5739 5737 5735 5733 5731 5729 5728 5727 5725 5723 5721 5719 5716 5713 5711 5708 5706 5704 5702 5700 5697 5694 5692 5690 5688 5686 5683 5681 5679 5677 5676 5674
5797 5797 5798 5798 5797 5797 5797 5796 5794 5792 5790 5790 5790 5790 5790 5789 5787 5785 5783 5782 5782 5781 5781 5780 5778 5777 5775 5773 5771 5769 5768 5766 5764 5762 5760 5759 5758 5757 5757 5756 5754 5753 5752 5752 5751 5750 5750 5749 5747 5745 5742 5738 5735 5733 5731 5729 5728 5726 5724 5723 5721 5719 5717 5715 5713 5711 5708 5706 5703 5701 5699 5697 5695 5692 5690 5688 5685 5684 5682 5679 5677 5676 5674 5672 5671
5792 5792 5792 5792 5792 5791 5791 5790 5788 5786 5785 5784 5785 5785 5784 5782 5780 5779 5777 5776 5776 5776 5775 5775 5774 5772 5770 5768 5767 5765 5765 5763 5760 5757 5755 5754 5753 5752 5752 5750 5749 5748 5747 5747 5746 5745 5745 5744 5742 5739 5736 5732 5730 5728 5726 5725 5723 5721 5720 5718 5716 5713 5711 5709 5707 5705 5703 5700 5698 5696 5694 5692 5690 5688 5685 5683 5682 5680 5678 5676 5674 5672 5670 5669 5667
5786 5786 5786 5786 5786 5786 5785 5783 5781 5779 5778 5778 5778 5778 5777 5775 5774 5772 5771 5771 5771 5770 5770 5770 5769 5767 5766 5765 5764 5762 5761 5759 5756 5754 5752 5751 5750 5750 5748 5747 5746 5746 5744 5743 5742 5741 5740 5739 5737 5734 5730 5727 5725 5723 5721 5720 5718 5717 5715 5713 5710 5708 5705 5703 5701 5699 5697 5695 5693 5691 5689 5687 5685 5683 5681 5679 5677 5676 5674 5672 5671 5669 5667 5666 5664
5780 5780 5780 5780 5780 5780 5779 5777 5775 5774 5773 5772 5772 5772 5771 5770 5769 5768 5767 5767 5766 5766 5766 5765 5764 5762 5761 5760 5760 5758 5756 5754 5752 5750 5750 5748 5747 5746 5745 5744 5743 5742 5740 5739 5737 5736 5735 5732 5730 5727 5725 5722 5720 5718 5716 5715 5713 5711 5709 5707 5704 5702 5699 5697 5696 5694 5692 5690 5688 5686 5684 5683 5681 5679 5677 5675 5673 5672 5670 5669 5667 5666 5664 5662 5661
5774 5773 5773 5773 5773 5773 5772 5772 5770 5769 5768 5768 5767 5767 5766 5766 5765 5764 5764 5763 5762 5762 5761 5760 5758 5757 5756 5755 5753 5753 5751 5749 5747 5746 5746 5745 5743 5742 5741 5739 5737 5736 5734 5733 5732 5730 5727 5725 5722 5721 5719 5717 5714 5712 5710 5709 5707 5705 5703 5701 5698 5696 5693 5692 5690 5688 5687 5685 5683 5681 5680 5678 5676 5674 5673 5671 5669 5668 5666 5665 5664 5663 5661 5659 5658
5768 5768 5768 5768 5768 5767 5767 5767 5766 5765 5765 5764 5764 5763 5763 5762 5761 5760 5759 5758 5758 5757 5756 5755 5753 5752 5750 5748 5747 5746 5745 5743 5741 5740 5739 5739 5738 5737 5735 5734 5732 5730 5728 5726 5725 5723 5720 5718 5716 5714 5713 5711 5708 5706 5704 5702 5700 5699 5697 5694 5692 5690 5688 5686 5685 5683 5681 5679 5678 5676 5675 5673 5671 5670 5668 5667 5665 5664 5663 5661 5660 5659 5658 5656 5654